Flag for Poland Weather past 2 weeks in Zielona Góra, Poland

Now
54 °F

Passing clouds.


Feels Like: 54 °F
Forecast: 51 / 67 °F
Wind: 3 mph from Southwest

Location: Zielona Gora

Current Time: Apr 25, 2015 at 9:18:39 AM

Latest Report: Apr 25, 2015 at 8:00 AM


Visibility: 14 mi

Pressure: 29.87 "Hg

Humidity: 62%

Dew point: 41 °F

Location of Zielona GóraLocation

Historic Weather in Zielona Góra — Graph

°F

Zielona Góra temperature yesterday

Maximum temperature yesterday: 68 °F (at 4:00 PM)
Minimum temperature yesterday: 47 °F (at 6:00 AM)
Average temperature yesterday: 58 °F

Past Weeks' High & Low Weather Summary

 TemperatureHumidityPressure
High71 °F (Apr 11, 5:00 PM)93% (Apr 18, 7:00 AM)30.44 "Hg (Apr 18, 7:00 AM)
Low32 °F (Apr 18, 7:00 AM)22% (Apr 21, 2:00 PM)29.81 "Hg (Apr 15, 11:00 PM)
Average51 °F53%30.12 "Hg
* Reported Apr 10 8:00 AM — Apr 25 8:00 AM, Zielona Góra, Weather by CustomWeather, © 2015

Note: Actual official high and low records may vary slightly from our data, if they occured in-between our weather recording intervals... More about our weather records

Advertising

Zielona Góra weather history for previous 24 hours

 ConditionsComfort  
Time TempWeatherWind HumidityBarometerVisibility
8:00 AM
Sat, Apr 25
54 °FPassing clouds.3 mph62%29.87 "Hg14 mi
7:00 AM49 °FPassing clouds.2 mph72%29.88 "Hg9 mi
6:00 AM48 °FPassing clouds.2 mph74%29.87 "Hg9 mi
5:00 AM49 °FClear.2 mph71%29.87 "Hg9 mi
4:00 AM50 °FPassing clouds.3 mph66%29.87 "Hg12 mi
3:00 AM53 °FClear.3 mph60%29.87 "Hg16 mi
2:00 AM54 °FClear.2 mph52%29.88 "Hg19 mi
1:00 AM55 °FPassing clouds.2 mph50%29.88 "Hg19 mi
12:00 AM56 °FPassing clouds.2 mph47%29.89 "Hg19 mi
10:00 PM
Fri, Apr 24
60 °FPassing clouds.2 mph42%29.89 "Hg19 mi
9:00 PM61 °FPassing clouds.3 mph40%29.88 "Hg19 mi
8:00 PM63 °FScattered clouds.2 mph38%29.87 "Hg19 mi
7:00 PM65 °FPassing clouds.3 mph35%29.87 "Hg19 mi
6:00 PM67 °FPassing clouds.3 mph33%29.87 "Hg16 mi
5:00 PM68 °FPassing clouds.5 mph32%29.87 "Hg12 mi
4:00 PM68 °FPassing clouds.5 mph33%29.88 "Hg12 mi
3:00 PM66 °FPassing clouds.5 mph34%29.90 "Hg12 mi
2:00 PM65 °FPassing clouds.3 mph34%29.92 "Hg12 mi
1:00 PM64 °FScattered clouds.5 mph41%29.93 "Hg9 mi
12:00 PM61 °FPassing clouds.5 mph46%29.96 "Hg9 mi
11:00 AM60 °FScattered clouds.3 mph51%29.97 "Hg9 mi
10:00 AM58 °FScattered clouds.2 mph53%29.97 "Hg9 mi
9:00 AM55 °FPassing clouds.2 mph60%29.98 "Hg9 mi
Weather by CustomWeather, © 2015

See weather overviewHow to use our weather pages